Startbyn, Sweden

8:28 PM CET on February 14, 2016 (GMT +0100)
OVERKALIX | | Change Station
CLOSE
Current Station
Personal Weather Station
Location: OVERKALIX, BD
Elevation: 182 ft
Nearby Weather Stations

Elev 182 ft 66.32 °N, 22.78 °E | Updated 1 minute ago

Light Rain
Light Rain Snow
30.0 °F
Feels Like 30 °F
N
0.0
Wind Variable Wind from North
Gusts 0.0 mph

Today
High -- | Low -- °F
--% Chance of Precip.
Yesterday
High -- | Low -- °F
Precip. -- in
Pressure 29.59 in
Visibility 3.1 miles
Clouds Mostly Cloudy 300 ft
Overcast 700 ft
Windchill 30 °F
Dew Point 27 °F
Humidity 82%
Rainfall Not available.
Snow Depth Not available.
7:41 AM 3:45 PM
Waxing Crescent, 44% visible
METAR ESPA 141920Z 16005KT 5000 -RASN BKN003 OVC007 M00/M01 Q1002
Pressure 29.59 in
Visibility 3.1 miles
Clouds Mostly Cloudy 300 ft
Overcast 700 ft
Windchill 30 °F
Dew Point 27 °F
Humidity 82%
Rainfall Not available.
Snow Depth Not available.
7:41 AM 3:45 PM
Waxing Crescent, 44% visible
METAR ESPA 141920Z 16005KT 5000 -RASN BKN003 OVC007 M00/M01 Q1002

10-Day Weather Forecast

Almanac

Astronomy

Feb. 14, 2016 Rise Set
Actual Time
Civil Twilight
Nautical Twilight
Astronomical Twilight
Moon
Length of Visible Light
Length of Day
Tomorrow will be .
, % of the Moon is Illuminated

Today's Extremes

Country Highs Country Lows

Community

WunderPhotos

Upload Photos

1,892,875 photos uploaded!

WunderBlog® & News

Nearby

Air Quality

  Air Quality AQ Index Pollutant
Not available.

Snow Depth

Station Depth Elevation

Earthquake Activity

City Distance Mag. Time & Date
Minimum magnitude displayed is 2.5.

Coastal Water Temperatures

Place Temperature

Stations

Nearby Weather Stations

Station Location Temp. Windchill Dew Point Humidity Wind Precip. Elev Updated Type